Location: Monrovia
(34.7865°N, 86.7139°W)
Time: 00:49:43
(UTC+00:00)

Centaur AC-72 - Pass Details

Date: 14 July 2020
Orbit: 1130 x 35226 km, 19.1° (Epoch: 12 August)

Event Time Altitude Azimuth Distance (km) Brightness Sun altitude
Exits shadow 08:18:20 22° 165° (SSE) 2,509 4.3 -23.9°
Drops below altitude 10° 08:21:44 10° 128° (SE) 3,011 5.0 -23.5°
Sets 08:24:38 0° 111° (ESE) 4,012 5.9 -23.1°
